CZ-4C R/B (49496 NORAD) Tracking and Keplerian Element Data

This shows tracking and keplerian element data for the satellite.

Feedback or suggestion? Click here.




ElementValue
Catalog49496
NameCZ-4C R/B
Epoch Orbit191
Epoch Day339.95128379
Epoch Year2021
RAAN345.5767
Inclination98.3898
Eccentricity0.0124214
Argument of Perigee9.6168
Mean Anonmoly350.7376
Mean Motion14.7196973
Decay Rate1.97E-06
L11 49496U 21109B 21339.95128379 .00000197 00000+0 36639-4 0 9994
L22 49496 98.3898 345.5767 0124214 9.6168 350.7376 14.71969730 1919

Live tracking and technical data element details for CZ-4C R/B (NORAD 49496). CZ-4C R/B can be tracked NOW for your location showing map with azimuth and elevation plus other details from your city location.

Track the satellite on the map from your city or location and see movement details for azimuth, elevation, latitude, longitude, range, height, and movement on the map or in text.







IsCatalogInMostPopularTable: catalog: 49496, numindb: -1

Insert: records affected: 1


GetName: 49496 CZ-4C R/B

Hit Count: inserted at: Wed, 08 Dec 2021 16:29:35 GMT